Port Hope, MI

8:16 PM EST on February 10, 2016 (GMT -0500)
Port Hope

Weather History for KP58 - December, 2013

Change the Weather History Date:

Tuesday, December 31, 2013

  Actual Average Record
Temperature  
Mean Temperature 14 °F -  
Max Temperature 17 °F 32 °F 57 °F (2004)
Min Temperature 10 °F 21 °F 10 °F (1999)
Degree Days  
Heating Degree Days 52    
Moisture  
Dew Point 3 °F    
Average Humidity 62    
Maximum Humidity 84    
Minimum Humidity 47    
Precipitation  
Precipitation 0.04 in - - ()
Sea Level Pressure  
Sea Level Pressure 30.16 in    
Wind  
Wind Speed 7 mph (West)    
Max Wind Speed 15 mph    
Max Gust Speed 25 mph    
Averages and records for this station are not official NWS values.
T = Trace of Precipitation, MM = Missing Value Source: NWS Daily Summary

Daily Weather History Graph

Daily Weather History Graph

Search for Another Location

Airport or City:

Trip Planner

Search our weather history database for the weather conditions in past years. The results will help you decide how hot, cold, wet, or windy it might be!

Date:

Astronomy

Dec. 31, 2013 Rise Set
Actual Time 8:05 AM EST 5:02 PM EST
Civil Twilight 7:33 AM EST 5:35 PM EST
Nautical Twilight 6:56 AM EST 6:12 PM EST
Astronomical Twilight 6:21 AM EST 6:47 PM EST
Moon 6:56 AM EST (12/31) 4:39 PM EST (12/31)
Length of Visible Light 10h 02m
Length of Day
8h 57m
Waning Crescent, 1% of the Moon is Illuminated
Dec 31
Waning Crescent
Jan 1
New
Jan 7
First Quarter
Jan 15
Full
Jan 24
Last Quarter

Hourly Weather History & Observations

Time (EST) Temp. Windchill Dew Point Humidity Pressure Visibility Wind Dir Wind Speed Gust Speed Precip Events Conditions
12:51 AM 12.9 °F 6.9 °F 1.9 °F 62% 30.11 in - Variable 3.5 mph - N/A   Unknown
1:51 AM 12.9 °F 6.9 °F 5.0 °F 71% 30.09 in - SSW 3.5 mph - N/A   Unknown
2:51 AM 14.0 °F 5.1 °F 9.0 °F 80% 30.07 in - SW 5.8 mph - N/A   Unknown
3:51 AM 14.0 °F 3.9 °F 9.0 °F 80% 30.05 in - Variable 6.9 mph - 0.01 in   Unknown
4:51 AM 12.9 °F 1.6 °F 8.1 °F 81% 30.05 in - WSW 8.1 mph - 0.01 in   Unknown
5:51 AM 12.0 °F 2.7 °F 8.1 °F 84% 30.04 in - Variable 5.8 mph - 0.01 in   Unknown
6:51 AM 12.0 °F 0.5 °F 7.0 °F 80% 30.04 in - West 8.1 mph - 0.01 in   Unknown
7:51 AM 10.9 °F 0.2 °F 3.9 °F 73% 30.06 in - West 6.9 mph - N/A   Unknown
8:51 AM 10.9 °F -0.8 °F 3.0 °F 70% 30.09 in - West 8.1 mph 18.4 mph N/A   Unknown
9:51 AM 10.9 °F -1.8 °F 1.9 °F 67% 30.11 in - West 9.2 mph - N/A   Unknown
10:51 AM 12.9 °F -2.8 °F 3.0 °F 65% 30.13 in - West 15.0 mph 23.0 mph N/A   Unknown
11:51 AM 12.9 °F -0.2 °F 1.9 °F 62% 30.14 in - West 10.4 mph 18.4 mph N/A   Unknown
12:51 PM 14.0 °F 2.9 °F 1.0 °F 56% 30.15 in - West 8.1 mph 20.7 mph N/A   Unknown
1:51 PM 12.9 °F 1.6 °F -0.9 °F 54% 30.17 in - WSW 8.1 mph 23.0 mph N/A   Unknown
2:51 PM 14.0 °F 0.5 °F -0.0 °F 54% 30.18 in - WSW 11.5 mph 25.3 mph N/A   Unknown
3:51 PM 17.1 °F 3.6 °F 1.0 °F 50% 30.19 in - West 12.7 mph 20.7 mph N/A   Unknown
4:51 PM 17.1 °F 6.6 °F 1.0 °F 50% 30.20 in - West 8.1 mph 19.6 mph N/A   Unknown
5:51 PM 16.0 °F 6.3 °F -0.0 °F 49% 30.22 in - Variable 6.9 mph 16.1 mph N/A   Unknown
6:51 PM 16.0 °F 6.3 °F 1.0 °F 52% 30.25 in - West 6.9 mph - N/A   Unknown
7:51 PM 16.0 °F 5.3 °F -0.0 °F 49% 30.26 in - West 8.1 mph 17.3 mph N/A   Unknown
8:51 PM 16.0 °F 5.3 °F -0.9 °F 47% 30.27 in - West 8.1 mph 18.4 mph N/A   Unknown
9:51 PM 16.0 °F 5.3 °F 1.0 °F 52% 30.28 in - West 8.1 mph - N/A   Unknown
10:51 PM 15.1 °F 5.2 °F -0.9 °F 49% 30.31 in - West 6.9 mph 16.1 mph N/A   Unknown
11:51 PM 15.1 °F 5.2 °F -2.0 °F 47% 30.33 in - West 6.9 mph - N/A   Unknown